Other Public Products
Issued by NWS Grand Forks, ND

Home | Current Version | Previous Version | Text Only | Print | Product List | Glossary On
Versions: 1 2 3 4 5 6 7 8 9 10 11 12 13 14 15 16 17 18 19 20 21 22 23 24 25 26 27 28 29 30 31 32 33 34 35 36 37 38 39 40 41 42 43 44 45 46 47 48 49 50
000
FPUS83 KFGF 211610
OPUFGF
PRAIRIE TO PINES WEATHER ROUNDUP
NATIONAL WEATHER SERVICE EASTERN NORTH DAKOTA/GRAND FORKS ND
1100 AM CDT MON AUG 21 2017

 **SATELLITE DATA USED TO AUGMENT SKY COVER AT AUTOMATED STATIONS**
 *****  WEATHER ACROSS EASTERN NORTH DAKOTA  *****

CITY           SKY/WX    TMP DP  RH WIND       PRES   REMARKS
GRAND FORKS    CLOUDY    67  53  61 S6        29.93F
GRAND FORKS AF PTSUNNY   67  51  57 S7        29.94F
GRAND CITY NWS NOT AVBL
BUXTON         NOT AVBL
DEVILS LAKE    FAIR      69  53  56 S10       29.95F
FARGO          FAIR      67  58  72 SE9       29.95F
WAHPETON ARPT  FAIR      64  55  72 S6        29.97R
$$

 *****  WEATHER ACROSS CENTRAL AND WESTERN NORTH DAKOTA  *****

CITY           SKY/WX    TMP DP  RH WIND       PRES   REMARKS
JAMESTOWN      FAIR      68  56  65 S12       29.94F
BISMARCK       FAIR      70  56  61 W9        29.99R
MINOT          FAIR      69  51  52 W14       29.95R
MINOT AFB      FAIR      71  48  45 NW16      29.94R
GARRISON         N/A     68  52  56 NW15G22   29.96S
WILLISTON      FAIR      71  41  33 N21G28    30.06R
DICKINSON      FAIR      70  46  42 NW21      30.02R
HETTINGER      FAIR      72  46  39 NW14      30.06R
$$

 *****  OTHER OBSERVATIONS NORTHEAST NORTH DAKOTA  *****

CITY           SKY/WX    TMP DP  RH WIND       PRES   REMARKS
WALHALLA       DRIZZLE   61  63 100 SE6       29.94F
LANGDON        CLOUDY    63  61  94 W5        29.99R
CAVALIER       FAIR      64  55  72 CALM      29.94F
GRAFTON        FAIR      66  54  63 SE8       29.95F
CANDO          DRIZZLE   61  61 100 CALM      30.01R
FORT TOTTEN      N/A     69  51  51 S9        29.95S
ROLLA          FAIR      59  55  88 S9        29.97R
RUGBY          FAIR      63  57  82 SE8       29.95F
 ***** THE ABOVE OBSERVATIONS ARE NON NWS ARE NOT QUALITY
        CONTROLLED AND MAY MIS-REPORT RAIN FOR SNOW...
$$

 *****  OTHER OBSERVATIONS SOUTHEAST NORTH DAKOTA *****

CITY           SKY/WX    TMP DP  RH WIND       PRES   REMARKS
COOPERSTOWN    FAIR      68  54  60 S13       29.95F
VALLEY CITY      N/A     66  59  77 SE13      29.96F
OAKES          NOT AVBL
GWINNER        SUNNY     64  61  88 SE7       29.95F
SHEYENNE NWR     N/A     65  58  78 SE8       29.95S
BUFFALO        NOT AVBL
WYNDMERE       NOT AVBL
 ***** THE ABOVE OBSERVATIONS ARE NON NWS ARE NOT QUALITY
       CONTROLLED AND MAY MIS-REPORT RAIN FOR SNOW...
$$

  *****  WEATHER ACROSS NORTHERN MINNESOTA  *****

CITY           SKY/WX    TMP DP  RH WIND       PRES   REMARKS
FLAG ISLAND    FAIR      64  50  59 CALM      29.98S
WARROAD        LGT RAIN  61  54  77 S3        30.01S
ROSEAU         DRIZZLE   61  54  77 CALM      29.98F
HALLOCK        PTSUNNY   64  55  72 SE3       29.95F
THF RVR FALLS  CLOUDY    65  53  65 SE7       29.97
HALSTAD        NOT AVBL
FOSSTON        FAIR      64  55  72 SE5       29.98F
BAUDETTE       PTSUNNY   61  50  67 CALM      30.00F
WASKISH        CLOUDY    68  55  64 S3        30.01F
CROOKSTON      FAIR      66  55  68 S7        29.95F
$$
  *****  WEATHER ACROSS CENTRAL AND WEST MINNESOTA  *****

CITY           SKY/WX    TMP DP  RH WIND       PRES   REMARKS
BEMIDJI        FAIR      68  52  56 S10G16    30.00F
PARK RAPIDS    CLOUDY    64  57  78 SE7       29.99F
WADENA         PTSUNNY   61  61 100 E8        29.98F
DETROIT LAKES  FAIR      64  55  72 SE12      29.97F
MOORHEAD       FAIR      66  55  68 SE8       29.96F
FERGUS FALLS   FAIR      66  57  72 SE8       29.96S
ELBOW LAKE     FAIR      67  59  76 SE20      29.95F
MORRIS MN      FAIR      64  59  82 SE8       29.94F
STAPLES        PTSUNNY   59  57  94 E5        30.01F
WHEATON        FAIR      64  57  77 SE9       29.98F
$$
  *****  WEATHER ELSEWHERE ACROSS MINNESOTA  *****

CITY           SKY/WX    TMP DP  RH WIND       PRES   REMARKS
DULUTH         PTSUNNY   69  52  54 S5        30.05S
INTRNTL FALLS  FAIR      65  53  65 SW3       30.03F
ELY            FAIR      66  54  63 CALM      30.04F
CLOQUET        FAIR      66  54  63 CALM      30.06R
BRAINERD       CLOUDY    64  60  87 NE3       30.05F
HIBBING        FAIR      63  54  72 S5        30.05F
ALEXANDRIA     PTSUNNY   65  58  78 E10       29.99F
SAINT CLOUD    FAIR      70  60  70 N3        30.01S
MINNEAPOLIS    PTSUNNY   78  64  61 VRB3      29.99S
$$

  *****  WEATHER ACROSS SOUTH DAKOTA  *****

CITY           SKY/WX    TMP DP  RH WIND       PRES   REMARKS
SIOUX FALLS    CLOUDY    74  66  76 NE7       29.98R THUNDER
BROOKINGS      HVY RAIN  64  63  94 CALM      30.06R
WATERTOWN      PTSUNNY   62  62 100 SE10      29.98F
HURON          PTSUNNY   65  65 100 SE10      29.97F THUNDER
SISSETON         N/A     65  60  84 SE9       29.95S
ABERDEEN       FAIR      63  59  87 N8        29.92S
MITCHELL       PTSUNNY   74  66  76 NE6       29.99R
PIERRE         FAIR      61  60  97 CALM      29.95R
MOBRIDGE       FAIR      65  58  78 W8        29.98F
RAPID CITY     FAIR      74  51  44 N26G35    30.07R
$$

  *****  SOME WEATHER IN NEARBY STATES *****

CITY           SKY/WX    TMP DP  RH WIND       PRES   REMARKS
GLASGOW MT     FAIR      66  39  37 W7        30.14R
GREAT FALLS MT FAIR      64  35  34 VRB5      30.21R
CHEYENNE WY    FAIR      74  39  28 N20G25    30.20R
SCOTTSBLUFF NE FAIR      75  56  51 W10       30.07R
OMAHA NE       PTSUNNY   78  66  66 SE25G31   30.00F
DES MOINES IA  LGT RAIN  67  66  97 SE18      30.02F
DAVENPORT IA   FAIR      72  68  87 SE13G22   30.07F
CHICAGO IL     CLOUDY    81  71  71 W9        30.08R
EAU CLAIRE WI  PTSUNNY   69  65  86 NE5       30.02R
LA CROSSE WI   FAIR      81  69  67 CALM      30.01F
$$

  *****  SOME NATIONAL WEATHER *****

CITY           SKY/WX    TMP DP  RH WIND       PRES   REMARKS
LA GUARDIA NY  PTSUNNY   86  62  44 W14G20    30.17F
RALEIGH NC     PTSUNNY   90  72  55 S8        30.24S HX  97
ATLANTA GA     FAIR      89  70  53 NE5       30.21S HX  94
NEW ORLEANS LA LGT RAIN  87  78  74 NE7       30.13R HX 100
OKLAHOMA CITY  FAIR      86  70  58 S15       30.08S HX  90
ALBUQUERQUE NM PTSUNNY   64  59  83 SW6       30.26R
SALT LAKE CITY FAIR      82  45  27 SW6       30.11R
LOS ANGELES CA PTSUNNY   70  60  70 VRB3      30.01R
BOISE ID       FAIR      68  39  34 CALM      30.12R
SEATTLE WA     FAIR      65  56  72 N7        30.14S
$$

*** WEATHER ACROSS MANITOBA...SASKATCHEWAN AND ONTARIO ***
                ***ONTARIO***

CITY           SKY/WX    TMP DP  RH WIND       PRES   REMARKS
GERALDTON      MOSUNNY   70  57  64 W7        29.98F
THUNDER BAY    PTSUNNY   72  52  49 W2        30.01S
SIOUX LOOKOUT  CLOUDY    66  52  59 W6        29.99S
TORONTO        MOSUNNY   84  70  61 SW3       30.08S
BIG TROUT LK   SUNNY     66  50  55 W13G22    29.74S
PICKLE LAKE    PTSUNNY   68  48  49 W12G20    29.90S
DRYDEN         MOSUNNY   68  46  45 W6        30.01S
KENORA         CLOUDY    63  52  67 N6        30.01F
$$
                *** MANITOBA***

CITY           SKY/WX    TMP DP  RH WIND       PRES   REMARKS
BRANDON        PTSUNNY   63  54  72 E3        29.94R
DAUPHIN        CLOUDY    61  54  77 SE5       29.95S
ISLAND LAKE    MOSUNNY   68  50  52 W6        29.79S
PILOT MOUND      N/A     57  54  88 S10         N/A
THE PAS        MOSUNNY   64  48  55 W13       29.89R
THOMPSON       MOSUNNY   63  48  59 NW8       29.77S
WINNIPEG       LGT RAIN  57  55  94 E9        29.95F
LYNN LAKE      CLOUDY    57  50  77 MISG      29.81R
CHURCHILL      CLOUDY    50  50 100 NE18      29.73R FOG
GILLAM         DRIZZLE   57  52  82 NW17G25   29.70R
$$
                ***SASKATCHEWAN***

CITY           SKY/WX    TMP DP  RH WIND       PRES   REMARKS
ESTEVAN        MOSUNNY   68  43  40 NW22G29   30.04R
KINDERSLEY     MOSUNNY   63  45  51 W8        30.16R
LLOYDMINSTER   MOSUNNY   61  48  63 W10       30.11R
PRINCE ALBERT  MOSUNNY   64  45  48 NW10      30.05R
REGINA         MOSUNNY   64  43  45 NW14G20   30.09R
YORKTON        SUNNY     63  48  59 NW13      30.00R



USA.gov is the U.S. government's official web portal to all federal, state and local government web resources and services.